Regional Weather Roundup
Issued by NWS

Home | Current Version | Previous Version | Graphics & Text | Print | Product List | Glossary On
Versions: 1 2 3 4 5 6 7 8 9 10 11 12 13 14 15 16 17 18 19 20 21 22 23 24 25 26 27 28
000
ASUS45 KSLC 020510
RWRUT

UTAH REGIONAL WEATHER ROUNDUP
NATIONAL WEATHER SERVICE SALT LAKE CITY UT
1000 PM MST THU DEC 01 2016

UTZ001>011-023>025-020600-

NORTHERN UTAH

CITY           SKY/WX    TMP DP  RH WIND       PRES   REMARKS
BRIGHAM CITY     N/A     31  27  83 W3        30.13R
HILL AFB       FLURRIES  28  23  79 CALM      30.10R
LOGAN          CLOUDY    30  28  92 CALM      30.12R
OGDEN          CLOUDY    28  25  88 S5        30.10S WCI  23
SALT LAKE CITY CLOUDY    32  28  85 N6        30.11R WCI  26
TOOELE VALLEY  CLOUDY    30  30 100 N8        30.13R WCI  23
WENDOVER       CLOUDY    34  16  47 N7        30.13R WCI  28
HEBER CITY     CLOUDY    21  19  93 CALM      30.06R
WEST JORDAN    CLOUDY    31  29  93 CALM      30.11R

$$

UTZ011>015-024>027-020600-

CENTRAL/NORTHEAST UTAH

CITY           SKY/WX    TMP DP  RH WIND       PRES   REMARKS
PROVO AIRPORT  PTCLDY    25  23  92 CALM      30.11R
MOAB/CANYONLAN CLOUDY    33  18  53 W3        30.00R
DELTA          CLOUDY    28  27  93 N5        30.08S WCI  23
PRICE          CLOUDY    22  13  68 NE3       30.00R
ROOSEVELT      CLOUDY    27  21  80 SW5       30.08R WCI  21
VERNAL         CLOUDY    25  21  85 NW3       30.05R

$$

UTZ013>016-019>022-027-020600-

SOUTHERN UTAH

CITY           SKY/WX    TMP DP  RH WIND       PRES   REMARKS
BRYCE CANYON   CLOUDY    21  15  78 NE10      29.98R WCI  10
CEDAR CITY     CLOUDY    28  20  71 N6        30.00R WCI  22
MILFORD        MOCLDY    26  18  71 N10       30.05R WCI  16
ST GEORGE      PTCLDY    39  19  45 S7        30.01S WCI  34
HANKSVILLE     CLOUDY    34  18  51 CALM      30.04R
BLANDING       MOCLDY    25  16  68 N3        30.04R

$$

REGIONAL REPORTS     COLORADO/ARIZONA

CITY           SKY/WX    TMP DP  RH WIND       PRES   REMARKS
CRAIG, CO      LGT SNOW  24  20  84 CALM      30.03R FOG
GRAND JUNCTION CLOUDY    30  22  72 CALM      30.01S
RIFLE, CO      CLOUDY    27  22  81 CALM      30.02S
MONTROSE, CO   CLOUDY    24  17  74 SE8       30.02F WCI  15
CORTEZ, CO     CLOUDY    16  13  88 E5        29.97S WCI   9
COLORADO CITY    N/A     28  25  86 SE5       30.00S WCI  23
PAGE, AZ       CLOUDY    38  16  40 CALM      29.97R
GRAND CANYON   MOCLDY    23  16  74 CALM      29.97R
KINGMAN, AZ    CLOUDY    38  18  44 E7        29.95S WCI  33
FLAGSTAFF, AZ  MOCLDY    24  17  74 CALM      29.94R

$$

REGIONAL REPORTS    NEVADA/IDAHO/WYOMING

CITY           SKY/WX    TMP DP  RH WIND       PRES   REMARKS
LAS VEGAS, NV  CLOUDY    52  20  28 CALM      29.96R
ELY, NY        CLOUDY    24  15  68 N8        30.08R WCI  15
ELKO, NV       MOCLDY    26  16  65 N3        30.15R
POCATELLO, ID  LGT SNOW  28  26  92 SW13      30.15R FOG     WCI  17
BURLEY, ID     PTCLDY    27  22  81 SW5       30.15R WCI  22
FORT BRIDGER,    N/A     17  16  95 W9        30.06R WCI   5
EVANSTON, WY   CLOUDY    19  12  74 CALM      30.03R
ROCK SPRINGS,  CLOUDY    18  13  80 SW10      30.01R WCI   6

$$




USA.gov is the U.S. government's official web portal to all federal, state and local government web resources and services.